www.pogodaiklimat.ru

Погода и климат >> Архив погоды >> Норвегия >> Остров Белый


ПОГОДА на Острове Белый

  • Прогноз погоды на Острове Белый
  • Монитор погоды на Острове Белый

АРХИВ ПОГОДЫ на Острове Белый

Время (UTC), дата Ветер
(напр.,м/с)
 
Видим.   Явления Облачность Т
(С)
Тd
(С)
f
(%)
Тe
(С)
Тes
(С)
Комфортность P
(гПа)
Po
(гПа)
Тmin
(С)
Tmax
(С)
R
(мм)
R24
(мм)
S
(см)
01 16.08 С 2
{2}
н/о н/о -0.3 -0.3 100 -4 -4 997.5 996.5
02 16.08 СЗ 2
{2}
н/о н/о -0.2 -0.2 100 -4 -4 997.6 996.5
03 16.08 СЗ 2
{2}
н/о н/о -0.3 -0.3 100 -4 -4 997.6 996.5
04 16.08 СЗ 2
{3}
н/о н/о -0.4 -0.4 100 -4 -4 997.8 996.7
05 16.08 СЗ 3
{3}
н/о н/о -0.6 -0.6 100 -6 -6 998.1 997.1
06 16.08 СЗ 1
{3}
н/о н/о -0.6 -0.6 100 -3 -3 998.3 997.2 -0.8 -0.1
07 16.08 З 1
{2}
н/о н/о -0.5 -0.5 100 -3 -3 998.6 997.5
08 16.08 З 1
{2}
н/о н/о -0.4 -0.4 100 -3 -3 998.8 997.7
09 16.08 ЮЗ 2
{2}
н/о н/о -0.3 -0.3 100 -4 -4 999.0 997.9
10 16.08 Ю 3
{3}
н/о н/о -0.2 -0.2 100 -5 -5 999.2 998.2
11 16.08 Ю 4
{5}
н/о н/о -0.6 -0.6 100 -6 -6 999.4 998.3
12 16.08 Ю 6
{7}
н/о н/о -0.6 -0.6 100 -8 -8 999.4 998.3
13 16.08 ЮВ 6
{7}
н/о н/о -0.3 -0.3 100 -7 -7 999.4 998.3
14 16.08 ЮВ 7
{8}
н/о н/о -0.1 -0.1 100 -8 -8 999.3 998.3
15 16.08 Ю 7
{8}
н/о н/о +0.1 +0.1 100 -7 -7 999.2 998.1
16 16.08 ЮВ 8
{9}
н/о н/о -0.3 -0.3 100 -8 -8 999.0 997.9
18 16.08 ЮВ 7 н/о н/о 0.0 0.0 100 -7 -7 999.0 998.0
19 16.08 ЮВ 6
{7}
н/о н/о -0.1 -0.1 100 -7 -7 999.0 997.9
20 16.08 ЮВ 7
{8}
н/о н/о -0.2 -0.2 100 -8 -8 998.8 997.7
21 16.08 ЮВ 7
{8}
н/о н/о 0.0 0.0 100 -7 -7 998.6 997.5
22 16.08 ЮВ 8
{8}
н/о н/о +0.2 -0.2 97 -7 -7 998.5 997.4
23 16.08 В 7
{8}
н/о н/о +0.3 -0.4 95 -7 -7 998.6 997.5
00 17.08 В 6
{8}
н/о н/о +0.7 -0.6 91 -6 -6 998.5 997.4
01 17.08 ЮЗ 2
{7}
н/о н/о -0.1 -0.3 99 -4 -4 998.9 997.9
02 17.08
{2}
н/о н/о 0.0 0.0 100 999.1 998.0
03 17.08 СЗ 1
{2}
н/о н/о -0.2 -0.2 100 -3 -3 999.4 998.3
04 17.08 Ю 3
{3}
н/о н/о +0.1 +0.1 100 -5 -5 999.7 998.6
05 17.08 Ю 3
{4}
н/о н/о -0.3 -0.3 100 -5 -5 999.9 998.8
06 17.08 ЮВ 4
{7}
н/о н/о -0.3 -0.3 100 -6 -6 1000.2 999.1 -0.4 +1.0
07 17.08 ЮВ 6
{7}
н/о н/о 0.0 0.0 100 -7 -7 1000.2 999.1
08 17.08 Ю 8
{9}
н/о н/о +0.1 +0.1 100 -8 -8 1000.3 999.3
09 17.08 ЮВ 8
{11}
н/о н/о 0.0 0.0 100 -8 -8 1000.5 999.4
10 17.08 ЮВ 7
{9}
н/о н/о +0.1 +0.1 100 -7 -7 1000.9 999.8
11 17.08 Ю 5
{8}
н/о н/о +0.3 +0.3 100 -6 -6 1001.5 1000.5
12 17.08 Ю 4
{11}
н/о н/о -0.3 -0.3 100 -6 -6 1002.2 1001.1
13 17.08 Ю 3
{5}
н/о н/о -0.3 -0.3 100 -5 -5 1002.6 1001.6
14 17.08 Ю 3
{5}
н/о н/о -0.1 -0.1 100 -5 -5 1002.9 1001.8
15 17.08 ЮВ 3
{5}
н/о н/о +0.2 -0.4 96 -5 -5 1003.2 1002.1
16 17.08 Ю 3
{4}
н/о н/о -0.1 -0.6 96 -5 -5 1003.6 1002.6
17 17.08 Ю 3
{4}
н/о н/о +0.2 -0.8 93 -5 -5 1003.9 1002.9
18 17.08 Ю 2
{5}
н/о н/о +1.0 -0.6 89 -3 -3 1004.1 1003.0 -0.6 +1.0
19 17.08 Ю 5
{6}
н/о н/о +0.1 -0.7 94 -6 -6 1004.4 1003.4
20 17.08 ЮВ 4
{7}
н/о н/о +0.5 -0.5 93 -5 -5 1004.7 1003.6
21 17.08 Ю 3
{4}
н/о н/о +1.3 -1.1 84 -3 -3 1005.0 1003.9
22 17.08 Ю 3
{4}
н/о н/о +0.9 -1.0 87 -4 -4 1005.3 1004.3
23 17.08 ЮВ 6
{6}
н/о н/о +0.7 -2.0 82 -6 -6 1005.5 1004.5
00 18.08 ЮВ 7
{8}
н/о н/о +0.3 -2.9 79 -7 -7 1005.6 1004.6
01 18.08 ЮВ 8
{9}
н/о н/о +0.2 -2.8 80 -7 -7 1005.7 1004.7
02 18.08 В 9
{9}
н/о н/о -0.2 -1.6 90 -8 -8 1006.0 1004.9
03 18.08 ЮВ 7
{9}
н/о н/о +1.7 -0.1 88 -5 -5 1006.2 1005.1
04 18.08 ЮВ 6
{8}
н/о н/о +2.0 +0.2 88 -4 -4 1006.3 1005.3
05 18.08 Ю 7
{8}
н/о н/о +1.9 -0.2 86 -5 -5 1006.3 1005.3
06 18.08 Ю 6
{9}
н/о н/о +1.5 -0.1 89 -5 -5 1006.6 1005.6 -0.6 +2.3
07 18.08 ЮВ 6
{7}
н/о н/о +1.6 0.0 89 -5 -5 1007.1 1006.0
08 18.08 Ю 6
{7}
н/о н/о +1.4 +0.1 91 -5 -5 1007.4 1006.3
09 18.08 ЮВ 5
{7}
н/о н/о +1.2 -0.2 90 -5 -5 1007.7 1006.6
10 18.08 ЮВ 5
{7}
н/о н/о +0.8 +0.1 95 -5 -5 1008.0 1006.9
11 18.08 Ю 7
{7}
н/о н/о +1.0 -0.1 92 -6 -6 1008.3 1007.2
12 18.08 ЮВ 6
{8}
н/о н/о +2.1 -0.1 85 -4 -4 1008.6 1007.5
13 18.08 ЮВ 4
{7}
н/о н/о +2.9 -0.5 78 -2 -2 1008.9 1007.8
14 18.08 ЮВ 4
{7}
н/о н/о +3.2 -0.4 77 -1 -1 1009.2 1008.2
16 18.08
{5}
н/о н/о +0.3 -1.0 91 1009.8 1008.7
17 18.08
{4}
н/о н/о +0.1 -0.2 98 1010.2 1009.1
18 18.08 Ю 1 н/о н/о -0.4 -0.6 99 -3 -3 1010.4 1009.4
19 18.08 ЮЗ 2
{4}
н/о н/о -1.7 -1.7 100 -6 -6 1010.7 1009.6
20 18.08 С 2
{2}
н/о н/о -2.4 -2.4 100 -7 -7 1010.9 1009.8
21 18.08 штиль 0
{2}
н/о н/о -2.4 -2.4 100 -4 -4 1011.2 1010.1
22 18.08 ЮВ 5
{6}
н/о н/о -0.4 -0.4 100 -7 -7 1011.2 1010.2
23 18.08 В 8
{9}
н/о н/о -1.3 -1.8 96 -9 -9 1011.4 1010.3
00 19.08 В 7
{10}
н/о н/о -0.4 -0.9 96 -8 -8 1011.2 1010.2
01 19.08 В 4
{8}
н/о н/о -0.1 -1.2 92 -6 -6 1011.4 1010.3
02 19.08 штиль 0
{6}
н/о н/о -2.3 -2.5 99 -4 -4 1011.7 1010.6
03 19.08 ЮВ 6
{7}
н/о н/о -1.1 -1.7 96 -8 -8 1011.9 1010.8
04 19.08 Ю 5
{7}
н/о н/о -0.7 -0.7 100 -7 -7 1012.0 1010.9
05 19.08 Ю 5
{6}
н/о н/о -0.4 -0.4 100 -7 -7 1011.8 1010.7
06 19.08 ЮВ 4
{8}
н/о н/о -0.1 -0.7 96 -6 -6 1011.8 1010.8 -2.7 +0.3
07 19.08 ЮВ 4
{5}
н/о н/о 0.0 -1.0 93 -6 -6 1011.9 1010.8
08 19.08 ЮВ 3
{4}
н/о н/о +0.5 -1.6 86 -4 -4 1012.0 1010.9
09 19.08 ЮВ 3
{5}
н/о н/о +1.4 -1.8 79 -3 -3 1011.9 1010.8
10 19.08 С 3
{4}
н/о н/о -0.9 -1.9 93 -6 -6 1012.0 1010.9
11 19.08 С 2
{3}
н/о н/о -0.6 -1.2 96 -5 -5 1012.0 1010.9
12 19.08 СЗ 2
{5}
н/о н/о +0.6 -1.5 86 -3 -3 1011.9 1010.8
13 19.08 С 2
{2}
н/о н/о +0.5 -1.4 87 -3 -3 1011.7 1010.7
14 19.08
{3}
н/о н/о +0.5 -1.2 88 1011.5 1010.4
15 19.08 В 1
{3}
н/о н/о +0.9 -1.3 85 -1 -1 1011.7 1010.6
17 19.08 С 2
{6}
н/о н/о -0.6 -2.0 90 -4 -4 1011.4 1010.3
18 19.08 н/о н/о -1.3 -1.8 96 1011.1 1010.0
19 19.08 С 5
{6}
н/о н/о -0.8 -0.8 100 -7 -7 1010.9 1009.8
20 19.08 С 5
{6}
н/о н/о -1.0 -1.0 100 -8 -8 1010.7 1009.6
21 19.08 С 5
{7}
н/о н/о -0.8 -0.8 100 -7 -7 1010.7 1009.7
22 19.08 С 5
{6}
н/о н/о -0.7 -0.7 100 -7 -7 1010.5 1009.4
23 19.08 С 7
{8}
н/о н/о -1.0 -1.0 100 -9 -9 1010.4 1009.3
00 20.08 СВ 10
{11}
н/о н/о +0.5 -0.6 92 -8 -8 1009.9 1008.8
01 20.08 СВ 9
{11}
н/о н/о +0.7 -0.6 91 -7 -7 1009.8 1008.7
02 20.08 С 5
{8}
н/о н/о -0.9 -0.9 100 -8 -8 1010.1 1009.0
03 20.08 СВ 8
{9}
н/о н/о +1.4 +0.4 93 -6 -6 1009.4 1008.3
04 20.08 СЗ 7
{10}
н/о н/о -1.1 -1.1 100 -9 -9 1009.1 1008.0
06 20.08 С 4 н/о н/о +1.3 +1.3 100 -4 -4 1008.3 1007.2
07 20.08 С 2
{9}
н/о н/о +1.7 +0.8 94 -2 -2 1007.9 1006.8
08 20.08 С 9
{10}
н/о н/о -0.9 -0.9 100 -9 -9 1006.8 1005.8
09 20.08 СЗ 3
{11}
н/о н/о -0.2 -0.2 100 -5 -5 1006.9 1005.8
10 20.08 С 7
{9}
н/о н/о -0.4 -0.4 100 -8 -8 1006.2 1005.1
11 20.08 С 9
{12}
н/о н/о -0.2 -0.2 100 -8 -8 1004.9 1003.8
12 20.08 С 5
{12}
н/о н/о +1.5 +1.5 100 -4 -4 1004.5 1003.5
13 20.08 С 6
{8}
н/о н/о 0.0 0.0 100 -7 -7 1003.8 1002.8
14 20.08 С 6
{10}
н/о н/о +0.1 +0.1 100 -7 -7 1003.3 1002.3
15 20.08 С 7
{9}
н/о н/о 0.0 0.0 100 -7 -7 1002.7 1001.6
16 20.08 С 5
{7}
н/о н/о -0.2 -0.2 100 -7 -7 1002.0 1001.0
17 20.08 С 7
{8}
н/о н/о -0.1 -0.1 100 -8 -8 1001.0 999.9
18 20.08 СЗ 3
{10}
н/о н/о +0.9 +0.9 100 -4 -4 1000.6 999.5 -0.9 +2.4
19 20.08 С 1
{3}
н/о н/о -0.2 -0.2 100 -3 -3 1000.5 999.4
20 20.08
{4}
н/о н/о -0.5 -0.5 100 999.8 998.8
21 20.08 С 2
{3}
н/о н/о -0.4 -0.4 100 -4 -4 999.4 998.3
22 20.08 С 2
{2}
н/о н/о -0.5 -0.5 100 -5 -5 999.0 997.9
23 20.08 С 3
{3}
н/о н/о -0.4 -0.4 100 -5 -5 998.4 997.4
00 21.08 С 3
{4}
н/о н/о -0.2 -0.2 100 -5 -5 998.1 997.0
01 21.08
{5}
н/о н/о -0.3 -0.3 100 998.0 996.9
02 21.08 С 2
{3}
н/о н/о -0.5 -0.5 100 -5 -5 997.8 996.8
03 21.08 С 3
{3}
н/о н/о -0.3 -0.3 100 -5 -5 997.7 996.6
04 21.08 С 3
{4}
н/о н/о -0.2 -0.2 100 -5 -5 997.5 996.4
05 21.08 С 3
{4}
н/о н/о -0.3 -0.3 100 -5 -5 997.7 996.7
06 21.08 С 3
{5}
н/о н/о -0.3 -0.3 100 -5 -5 997.8 996.7 -0.7 +0.7
07 21.08 С 3
{4}
н/о н/о -0.3 -0.3 100 -5 -5 998.2 997.1
08 21.08 С 3
{4}
н/о н/о -0.3 -0.3 100 -5 -5 998.6 997.5
09 21.08 С 2
{3}
н/о н/о -0.3 -0.3 100 -4 -4 999.0 997.9
10 21.08 С 2
{2}
н/о н/о -0.3 -0.3 100 -4 -4 999.5 998.4
11 21.08 С 2
{2}
н/о н/о -0.3 -0.3 100 -4 -4 1000.2 999.1
12 21.08 СЗ 2
{4}
н/о н/о -1.0 -1.0 100 -5 -5 1000.6 999.6
13 21.08 С 2
{3}
н/о н/о -1.1 -1.1 100 -5 -5 1001.4 1000.3
14 21.08 С 2
{3}
н/о н/о -1.4 -1.4 100 -6 -6 1002.5 1001.4
15 21.08 С 2
{2}
н/о н/о -1.5 -1.5 100 -6 -6 1002.9 1001.8
16 21.08 С 2
{2}
н/о н/о -1.6 -1.6 100 -6 -6 1003.6 1002.6
17 21.08 СЗ 2
{2}
н/о н/о -1.8 -1.8 100 -6 -6 1004.7 1003.6
18 21.08 СЗ 2
{3}
н/о н/о -2.1 -2.2 99 -6 -6 1005.6 1004.5 -2.1 -0.2
19 21.08 СЗ 2
{3}
н/о н/о -2.6 -2.7 99 -7 -7 1006.7 1005.7
20 21.08 СЗ 2
{2}
н/о н/о -2.7 -2.8 99 -7 -7 1008.0 1007.0
21 21.08 СЗ 2
{2}
н/о н/о -2.8 -2.9 99 -7 -7 1009.1 1008.0
22 21.08 СЗ 2
{2}
н/о н/о -3.1 -3.1 100 -7 -7 1010.0 1008.9
23 21.08 СЗ 2
{2}
н/о н/о -2.9 -3.1 99 -7 -7 1010.4 1009.3
00 22.08 СЗ 2
{3}
н/о н/о -2.7 -3.1 97 -7 -7 1011.2 1010.1
01 22.08 СЗ 1
{2}
н/о н/о -2.8 -3.3 96 -5 -5 1012.2 1011.2
02 22.08 С 1
{2}
н/о н/о -2.9 -3.3 97 -5 -5 1013.0 1012.0
03 22.08 С 1
{2}
н/о н/о -3.0 -3.4 97 -5 -5 1013.2 1012.1
04 22.08 С 1
{2}
н/о н/о -3.0 -3.6 96 -5 -5 1013.2 1012.1
05 22.08 С 2
{2}
н/о н/о -2.9 -3.9 93 -7 -7 1013.4 1012.3
07 22.08 С 1
{2}
н/о н/о -3.2 -3.9 95 -6 -6 1014.8 1013.8
08 22.08 СЗ 1
{1}
н/о н/о -3.0 -4.0 93 -5 -5 1015.5 1014.4
09 22.08 С 1
{1}
н/о н/о -2.9 -4.0 92 -5 -5 1016.1 1015.0
10 22.08 СЗ 1
{1}
н/о н/о -3.2 -3.9 95 -6 -6 1015.8 1014.7
11 22.08 СЗ 1
{1}
н/о н/о -3.5 -4.1 96 -6 -6 1016.5 1015.4
12 22.08 СЗ 1
{2}
н/о н/о -3.4 -3.9 96 -6 -6 1016.8 1015.7
13 22.08 СЗ 1
{1}
н/о н/о -3.7 -4.1 97 -6 -6 1017.2 1016.1
14 22.08 СЗ 1
{1}
н/о н/о -3.6 -4.0 97 -6 -6 1017.6 1016.5
18 22.08 штиль 0 н/о н/о -4.5 -4.7 99 -6 -6 1018.3 1017.2
19 22.08 штиль 0 н/о н/о -4.7 -4.9 98 -6 -6 1018.5 1017.4
20 22.08 штиль 0 н/о н/о -5.0 -5.4 97 -6 -6 1018.6 1017.5
21 22.08 штиль 0 н/о н/о -5.2 -5.6 97 -6 -6 1018.7 1017.6
22 22.08 штиль 0 н/о н/о -5.2 -5.2 100 -6 -6 1018.9 1017.8
23 22.08 штиль 0 н/о н/о -5.3 -5.3 100 -6 -6 1019.0 1017.9

 

Местоположение метеостанции Остров Белый (Норвегия): широта 80.07 долгота 31.50 высота над уровнем моря 10 м.

В архиве по умолчанию представлена погода на Острове Белый за последнюю неделю. Архивные данные за месяц целиком и за предыдущие месяцы, начиная с января 2011 года, Вы можете получить, выбрав интересующий диапазон дат из раскрывающегося списка и нажав кнопку "Ввод!".


*Определитесь, кто Вы:
робот инопланетянин человек

Внимание! Время в таблицах - всемирное. Для получения местного времени необходимо прибавить поправку, которая равна 1 ч.

Смотрите также архив погоды в соседних городах и на ближайших метеорологических станциях:

Погода на Острове Карла XII (Норвегия) (137 км)
Погода на Конгсёйа (Норвегия) (137 км)
Погода на Эдже (Норвегия) (271 км)
Погода на Верлегенхукен (Норвегия) (292 км)
Погода в Пирамиде (Норвегия) (347 км)
Погода в Свальбард аэропорту (Норвегия) (389 км)
Погода в Ню-Олесунн (Норвегия) (415 км)
Погода в Хопене (Норвегия) (422 км)
Погода в Баренцбурге (Шпицберген, Россия) (424 км)
Погода на Акселойа (Норвегия) (444 км)

Пояснения к столбцам:

Ветер - указаны скорость ветра в м/с - средняя за 10 мин, порывы в срок и между сроками (в фигурных скобках) и направление, откуда дует ветер: С - северный, СВ - северо-восточный, В - восточный, ЮВ - юго-восточный, Ю - южный, ЮЗ - юго-западный, З - западный, СЗ - северо-западный.
Видимость - горизонтальная дальность видимости в метрах или километрах. При видимости от 1 до 10 км при отсутствии осадков обычно наблюдается дымка, при ухудшении видимости до 1 км и менее - туман. В сухую погоду видимость может ухудшаться дымом, пылью или мглою.
Явления - указаны атмосферные явления, наблюдавшиеся в срок или в последний час перед сроком; фигурными скобками обозначены явления, наблюдавшиеся между сроками (за 1-3 часа до срока); квадратными скобками обозначены град или гололедные отложения с указанием их диаметра в мм.
Облачность - указаны через наклонную черту общая и нижняя облачность в баллах и высота нижней границы облаков в метрах; квадратными скобками обозначены формы облаков: Ci - перистые, Cs - перисто-слоистые, Cc - перисто-кучевые, Ac - высококучевые, As - высокослоистые, Sc - слоисто-кучевые, Ns - слоисто-дождевые, Cu - кучевые, Cb - кучево-дождевые. Подробнее классификацию облаков см. в Атласе облаков (PDF).
T - Температура воздуха - температура, измеренная на высоте 2 м над землей.
Td - Температура точки росы - температура, при понижении до которой содержащийся в воздухе водяной пар достигнет насыщения.
f - Относительная влажность воздуха - влажноcть воздуха, измеренная на высоте 2 м над землей.
Te - Эффективная температура - температура, которую ощущает одетый по сезону человек в тени. Характеристика душности погоды. При расчете учитывается влияние влажности воздуха и скорости ветра на теплоощущения человека.
Tes - Эффективная температура на солнце - температура, которую ощущает человек, с поправкой на солнечный нагрев. Характеристика знойности погоды. Зависит от высоты солнца над горизонтом, облачности и скорости ветра. Ночью, в пасмурную погоду, а также при ветре 12 м/с и более поправка равна нулю.
P - Атмосферное давление - приведенное к уровню моря атмосферное давление.
Po - Атмосферное давление - измеренное на уровне метеостанции атмосферное давление.
Tmin - Минимальная температура - минимум температуры воздуха на высоте 2 м над землей.
Tmax - Максимальная температура - максимум температуры воздуха на высоте 2 м над землей.
R - Количество осадков - Количество выпавших осадков за период времени, мм. При наведении курсора мыши на число - период времени, за который выпало указанное количество осадков.
R24 - Количество осадков - Количество выпавших осадков за 24 часа, мм.
S - Снежный покров - Высота снежного покрова, см. При наведении курсора мыши на число - состояние снежного покрова и степень покрытия местности в баллах.